This is the latest recevied weather packets stored in our database for station/object N0KWA. If no packets are shown the sender has not sent any weather packets the latest 10 day(s).
| Time | Temp. | Humidity | Pressure | Rain* | Wind** | Luminosity | Snow |
|---|---|---|---|---|---|---|---|
| 1777135046 | 21.67° C | 99% | 1013.4 hPa | 0 mm | - | 43 W/m² | - |
| 1777134743 | 21.11° C | 99% | 1013.3 hPa | 0 mm | - | 40 W/m² | - |
| 1777134438 | 20.56° C | 99% | 1013.5 hPa | 0 mm | - | 49 W/m² | - |
| 1777134135 | 21.11° C | 99% | 1013.5 hPa | 0 mm | - | 50 W/m² | - |
| 1777133832 | 20.56° C | 99% | 1013.5 hPa | 0 mm | - | 46 W/m² | - |
| 1777133528 | 20.56° C | 99% | 1013.5 hPa | 0 mm | - | 50 W/m² | - |
| 1777133223 | 20° C | 99% | 1013.7 hPa | 0 mm | - | 52 W/m² | - |
| 1777132917 | 20.56° C | 99% | 1013.6 hPa | 0 mm | - | 56 W/m² | - |
| 1777132613 | 20.56° C | 99% | 1013.8 hPa | 0 mm | - | 53 W/m² | - |
| 1777132310 | 20° C | 99% | 1013.9 hPa | 0 mm | - | 45 W/m² | - |
| 1777132006 | 20° C | 99% | 1013.9 hPa | 0 mm | - | 49 W/m² | - |
| 1777131705 | 20° C | 99% | 1014 hPa | 0 mm | - | 56 W/m² | - |
| 1777131405 | 19.44° C | 99% | 1014 hPa | 0 mm | - | 39 W/m² | - |
| 1777131104 | 19.44° C | 99% | 1014.1 hPa | 0 mm | - | 52 W/m² | - |
| 1777130799 | 19.44° C | 99% | 1013.9 hPa | 0 mm | - | 49 W/m² | - |
| 1777130496 | 19.44° C | 99% | 1014 hPa | 0 mm | - | 37 W/m² | - |
| 1777130192 | 18.89° C | 99% | 1014.4 hPa | 0 mm | - | 36 W/m² | - |
| 1777129888 | 18.89° C | 99% | 1014.2 hPa | 0 mm | - | 41 W/m² | - |
| 1777129583 | 18.89° C | 99% | 1014.2 hPa | 0 mm | - | 41 W/m² | - |
| 1777129282 | 18.33° C | 99% | 1014.1 hPa | 0 mm | - | 37 W/m² | - |
| 1777128978 | 18.33° C | 99% | 1014.1 hPa | 0 mm | - | 39 W/m² | - |
| 1777128674 | 17.78° C | 99% | 1014.1 hPa | 0 mm | - | 34 W/m² | - |
| 1777128373 | 17.78° C | 99% | 1014.1 hPa | 0 mm | - | 29 W/m² | - |
| 1777128069 | 17.78° C | 99% | 1014 hPa | 0 mm | - | 23 W/m² | - |
| 1777127767 | 17.78° C | 99% | 1013.9 hPa | 0 mm | - | 19 W/m² | - |
* Rain latest hour (hover to see other rain measurements)
** Current wind speed in m/s (hover to see current wind gust speed)